Starlink 32905

operational
NORAD ID: 62923 Int'l Des: 2025-027 Owner: SPXS Country: US Constellation: starlink
LEOCIRCULAR

关于 Starlink 32905

正在加载描述...

实时位置

正在加载3D地球...

即将过境

高度历史

Altitude vs Time

uPlot chart will show altitude changes over time

两行轨道根数

1 62923U 25027S 25349.69250190 .00015687 00000-0 57828-3 0 9993
2 62923 42.9987 243.4501 0000805 265.6846 94.3914 15.27584350 48699
Epoch: Dec 15, 2025 • Age: 23 hours

当前状态

高度 482.3 km
速度 7.63 km/s
星下点 4.72°N, 97.37°E
发射日期 Feb 8, 2025
运行时间 0.8 years
类型 internet

技术详情

分类 Payload
质量 730.00 kg
干质量 700.00 kg
总质量 730.00 kg
长度 0.30 m
直径 4.10 m
跨度 29.00 m
形状 Box + pan
制造商 SPXS
平台类型 Starlink V2M
阶段状态 In Orbit
所有者/国家 SPXS/US

大型星座

Loading constellations...